Home   Weather   Gladbeck   Past weeks

Flag for Germany Past Weather in Gladbeck, North Rhine-Westphalia, Germany — Yesterday and Last 2 Weeks

Now
57 °F

Light rain. Passing clouds.


Feels Like: 55 °F
Forecast: 49 / 59 °F
Wind: 8 mph from Southeast

Location: Duesseldorf

Current Time: Oct 1, 2016 at 2:03:57 AM

Latest Report: Oct 1, 2016 at 1:20 AM


Visibility: N/A

Pressure: 29.89 "Hg

Humidity: 77%

Dew Point: 50 °F

Location of GladbeckLocation

Past Weather in Gladbeck — Graph

°F

Gladbeck Temperature Yesterday

Maximum temperature yesterday: 64 °F (at 3:20 PM)
Minimum temperature yesterday: 55 °F (at 7:50 AM)
Average temperature yesterday: 59 °F

High & Low Weather Summary for the Past Weeks

 TemperatureHumidityPressure
High81 °F (Sep 25, 3:20 PM)100% (Sep 16, 2:20 AM)30.33 "Hg (Sep 16, 2:20 AM)
Low45 °F (Sep 27, 7:20 AM)28% (Sep 25, 4:50 PM)29.89 "Hg (Sep 16, 3:50 PM)
Average62 °F72%30.10 "Hg
* Reported Sep 16 12:20 AM — Oct 1 12:50 AM, Gladbeck, Weather by CustomWeather, © 2016

Note: Actual official high and low records may vary slightly from our data, if they occured in-between our weather recording intervals... More about our weather records

Advertising

Gladbeck Weather History for the Previous 24 Hours

Scroll right to see more
 ConditionsComfort  
Time TempWeatherWind HumidityBarometerVisibility
12:50 AM
Sat, Oct 1
57 °FClear.7 mph77%29.92 "Hg10 mi
12:20 AM57 °FClear.9 mph77%29.92 "Hg10 mi
11:50 PM
Fri, Sep 30
57 °FClear.10 mph72%29.92 "Hg10 mi
11:20 PM55 °FPassing clouds.3 mph82%29.95 "HgN/A
10:50 PM55 °FPassing clouds.3 mph82%29.95 "HgN/A
10:20 PM55 °FPassing clouds.5 mph82%29.95 "HgN/A
9:50 PM55 °FClear.2 mph77%29.95 "Hg10 mi
9:20 PM55 °FClear.6 mph77%29.95 "Hg10 mi
8:50 PM57 °FClear.7 mph72%29.95 "Hg10 mi
8:20 PM57 °FClear.7 mph67%29.95 "Hg10 mi
7:50 PM57 °FClear.6 mph67%29.95 "Hg10 mi
7:20 PM57 °FClear.6 mph67%29.95 "Hg10 mi
6:50 PM63 °FPartly sunny.7 mph52%29.95 "HgN/A
6:20 PM64 °FPartly sunny.9 mph49%29.95 "HgN/A
5:50 PM64 °FPartly sunny.10 mph52%29.95 "HgN/A
5:20 PM64 °FScattered clouds.12 mph52%29.95 "HgN/A
4:50 PM64 °FScattered clouds.10 mph49%29.95 "HgN/A
4:20 PM64 °FScattered clouds.13 mph52%29.95 "HgN/A
3:50 PM64 °FScattered clouds.13 mph56%29.95 "HgN/A
3:20 PM64 °FPartly sunny.13 mph60%29.95 "HgN/A
2:50 PM63 °FBroken clouds.12 mph64%29.98 "HgN/A
2:20 PM63 °FBroken clouds.12 mph64%29.98 "HgN/A
1:50 PM63 °FBroken clouds.13 mph73%29.98 "HgN/A
1:20 PM63 °FBroken clouds.13 mph68%29.98 "HgN/A
12:50 PM63 °FBroken clouds.14 mph73%29.98 "HgN/A
12:20 PM63 °FBroken clouds.10 mph73%29.98 "HgN/A
11:50 AM61 °FBroken clouds.15 mph77%29.95 "HgN/A
11:20 AM61 °FBroken clouds.10 mph83%29.95 "HgN/A
10:50 AM61 °FBroken clouds.12 mph83%29.95 "HgN/A
10:20 AM59 °FBroken clouds.12 mph88%29.95 "HgN/A
9:50 AM59 °FBroken clouds.13 mph88%29.95 "HgN/A
9:20 AM57 °FBroken clouds.10 mph94%29.95 "HgN/A
8:50 AM57 °FBroken clouds.13 mph94%29.95 "HgN/A
8:20 AM57 °FBroken clouds.14 mph94%29.92 "HgN/A
7:50 AM55 °FBroken clouds.10 mph94%29.92 "HgN/A
7:20 AM57 °FPartly cloudy.10 mph88%29.92 "HgN/A
6:50 AM57 °FClear.10 mph88%29.92 "Hg10 mi
6:20 AM57 °FPassing clouds.10 mph88%29.92 "HgN/A
5:50 AM57 °FPassing clouds.9 mph94%29.92 "HgN/A
5:20 AM57 °FPartly cloudy.10 mph94%29.92 "HgN/A
4:50 AM57 °FPassing clouds.10 mph94%29.92 "HgN/A
4:20 AM57 °FPassing clouds.12 mph94%29.92 "HgN/A
3:50 AM57 °FPassing clouds.10 mph94%29.92 "HgN/A
3:20 AM57 °FPassing clouds.10 mph94%29.92 "HgN/A
2:50 AM59 °FPassing clouds.10 mph88%29.95 "HgN/A
2:20 AM59 °FClear.9 mph88%29.95 "Hg10 mi
Weather by CustomWeather, © 2016

See weather overviewHow to use our weather pages